| time (UTC) | temp F | wind direction | speed MPH | gust MPH | rain 1hr in | rain 24hr in | rain mn in | humidity % | barometer mb |
| 20260903173310 | 71 | 306 | 5.0 | 11.0 | 0.00 | 0.00 | 0.00 | 75 | 15.3 |
| 20260903172310 | 71 | 297 | 7.0 | 12.0 | 0.00 | 0.00 | 0.00 | 74 | 15.2 |
| 20260903165310 | 73 | 276 | 10.0 | 15.0 | 0.00 | 0.00 | 0.00 | 70 | 15.0 |
| 20260903164310 | 73 | 288 | 10.0 | 14.0 | 0.00 | 0.00 | 0.00 | 70 | 15.0 |
| 20260903163310 | 72 | 280 | 6.0 | 16.0 | 0.00 | 0.00 | 0.00 | 70 | 15.3 |
| 20260903162310 | 73 | 259 | 7.0 | 13.0 | 0.00 | 0.00 | 0.00 | 70 | 15.1 |
| 20260903161310 | 73 | 279 | 4.0 | 13.0 | 0.00 | 0.00 | 0.00 | 70 | 14.9 |
| 20260903154310 | 74 | 265 | 7.0 | 14.0 | 0.00 | 0.00 | 0.00 | 69 | 15.2 |
| 20260903153310 | 73 | 283 | 6.0 | 13.0 | 0.00 | 0.00 | 0.00 | 68 | 15.3 |
| 20260903152310 | 74 | 317 | 4.0 | 12.0 | 0.00 | 0.00 | 0.00 | 66 | 15.3 |
| 20260903151310 | 74 | 331 | 7.0 | 15.0 | 0.00 | 0.00 | 0.00 | 64 | 15.2 |
| 20260903144310 | 76 | 335 | 7.0 | 19.0 | 0.00 | 0.00 | 0.00 | 61 | 15.2 |
| 20260903143310 | 76 | 328 | 9.0 | 17.0 | 0.00 | 0.00 | 0.00 | 61 | 15.2 |
| 20260903142310 | 76 | 255 | 12.0 | 18.0 | 0.00 | 0.00 | 0.00 | 62 | 15.1 |
| 20260903141310 | 75 | 329 | 10.0 | 17.0 | 0.00 | 0.00 | 0.00 | 65 | 15.2 |
| 20260903135310 | 74 | 263 | 8.0 | 20.0 | 0.00 | 0.00 | 0.00 | 65 | 15.1 |
| 20260903134310 | 75 | 312 | 10.0 | 19.0 | 0.00 | 0.00 | 0.00 | 64 | 15.0 |
| 20260903133310 | 76 | 300 | 8.0 | 17.0 | 0.00 | 0.00 | 0.00 | 64 | 15.0 |
| 20260903132310 | 75 | 298 | 9.0 | 19.0 | 0.00 | 0.00 | 0.00 | 67 | 14.8 |
| 20260903131310 | 74 | 294 | 10.0 | 20.0 | 0.00 | 0.00 | 0.00 | 68 | 14.8 |
| 20260903123310 | 73 | 294 | 6.0 | 20.0 | 0.00 | 0.00 | 0.00 | 71 | 14.8 |
| 20260903122310 | 73 | 306 | 12.0 | 24.0 | 0.00 | 0.00 | 0.00 | 69 | 14.7 |
| 20260903112310 | 72 | 300 | 9.0 | 23.0 | 0.00 | 0.00 | 0.00 | 73 | 14.7 |
| 20260903110310 | 73 | 274 | 14.0 | 25.0 | 0.00 | 0.00 | 0.00 | 76 | 14.4 |
| 20260903105311 | 71 | 255 | 16.0 | 25.0 | 0.00 | 0.00 | 0.00 | 78 | 14.4 |
| 20260903104310 | 71 | 268 | 9.0 | 25.0 | 0.00 | 0.00 | 0.00 | 79 | 14.2 |
| 20260903103309 | 71 | 229 | 6.0 | 16.0 | 0.00 | 0.00 | 0.00 | 81 | 14.3 |
| 20260903102310 | 71 | 225 | 6.0 | 15.0 | 0.00 | 0.00 | 0.00 | 81 | 14.4 |
| 20260903101310 | 71 | 263 | 6.0 | 17.0 | 0.00 | 0.00 | 0.00 | 83 | 14.7 |
| 20260903095309 | 69 | 275 | 10.0 | 14.0 | 0.00 | 0.00 | 0.00 | 85 | 14.5 |
| 20260903094310 | 69 | 298 | 9.0 | 15.0 | 0.00 | 0.00 | 0.00 | 86 | 14.5 |
| 20260903093310 | 68 | 271 | 9.0 | 16.0 | 0.00 | 0.00 | 0.00 | 87 | 14.4 |
| 20260903092311 | 68 | 219 | 4.0 | 17.0 | 0.00 | 0.00 | 0.00 | 88 | 14.6 |
| 20260903091310 | 68 | 298 | 6.0 | 13.0 | 0.00 | 0.00 | 0.00 | 88 | 14.5 |
| 20260903085310 | 67 | 281 | 6.0 | 12.0 | 0.00 | 0.00 | 0.00 | 91 | 14.1 |
| 20260903084310 | 66 | 263 | 8.0 | 13.0 | 0.00 | 0.00 | 0.00 | 91 | 14.0 |
| 20260903083310 | 66 | 236 | 7.0 | 17.0 | 0.00 | 0.00 | 0.00 | 91 | 14.0 |
| 20260903082309 | 66 | 227 | 9.0 | 16.0 | 0.00 | 0.00 | 0.00 | 90 | 14.0 |
| 20260903075310 | 65 | 214 | 5.0 | 13.0 | 0.00 | 0.00 | 0.00 | 90 | 14.0 |
| 20260903073310 | 65 | 254 | 6.0 | 14.0 | 0.00 | 0.00 | 0.00 | 88 | 14.2 |
| 20260903072310 | 66 | 279 | 6.0 | 13.0 | 0.00 | 0.00 | 0.00 | 87 | 14.2 |
| 20260903071310 | 66 | 247 | 6.0 | 17.0 | 0.00 | 0.00 | 0.00 | 86 | 14.3 |
| 20260903065309 | 66 | 213 | 6.0 | 15.0 | 0.00 | 0.00 | 0.00 | 84 | 14.1 |
| 20260903064310 | 66 | 259 | 4.0 | 14.0 | 0.00 | 0.00 | 0.00 | 84 | 14.0 |
| 20260903063310 | 66 | 212 | 4.0 | 13.0 | 0.00 | 0.00 | 0.00 | 83 | 14.0 |
| 20260903062309 | 66 | 306 | 4.0 | 13.0 | 0.00 | 0.00 | 0.00 | 83 | 14.0 |
| 20260903061310 | 66 | 240 | 8.0 | 14.0 | 0.00 | 0.00 | 0.00 | 82 | 13.8 |
| 20260903055310 | 65 | 267 | 7.0 | 14.0 | 0.00 | 0.00 | 0.00 | 82 | 13.8 |
| 20260903053310 | 65 | 268 | 6.0 | 15.0 | 0.00 | 0.00 | 0.00 | 82 | 13.9 |
| 20260903052310 | 65 | 263 | 9.0 | 16.0 | 0.00 | 0.00 | 0.00 | 82 | 13.8 |
| 20260903051310 | 65 | 288 | 5.0 | 12.0 | 0.00 | 0.00 | 0.00 | 82 | 13.8 |
| 20260903045310 | 65 | 288 | 9.0 | 15.0 | 0.00 | 0.00 | 0.00 | 80 | 14.0 |
| 20260903044310 | 65 | 252 | 3.0 | 11.0 | 0.00 | 0.00 | 0.00 | 80 | 13.8 |
| 20260903043310 | 65 | 256 | 4.0 | 11.0 | 0.00 | 0.00 | 0.00 | 80 | 13.7 |
| 20260903042310 | 65 | 206 | 4.0 | 13.0 | 0.00 | 0.00 | 0.00 | 81 | 13.5 |
| 20260903035313 | 64 | 281 | 4.0 | 10.0 | 0.00 | 0.00 | 0.00 | 81 | 14.2 |
| 20260903034310 | 64 | 248 | 4.0 | 11.0 | 0.00 | 0.00 | 0.00 | 82 | 14.4 |
| 20260903033310 | 64 | 239 | 4.0 | 11.0 | 0.00 | 0.00 | 0.00 | 82 | 14.3 |
| 20260903025310 | 64 | 277 | 2.0 | 9.0 | 0.00 | 0.00 | 0.00 | 83 | 14.5 |
| 20260903022310 | 64 | 244 | 4.0 | 11.0 | 0.00 | 0.00 | 0.00 | 81 | 14.8 |
| 20260903021311 | 63 | 278 | 3.0 | 8.0 | 0.00 | 0.00 | 0.00 | 80 | 14.8 |
| 20260903015311 | 63 | 247 | 2.0 | 7.0 | 0.00 | 0.00 | 0.00 | 80 | 14.7 |
| 20260903014310 | 63 | 240 | 2.0 | 6.0 | 0.00 | 0.00 | 0.00 | 81 | 15.1 |
| 20260903012309 | 63 | 240 | 4.0 | 10.0 | 0.00 | 0.00 | 0.00 | 80 | 15.2 |
| 20260903011310 | 63 | 235 | 4.0 | 10.0 | 0.00 | 0.00 | 0.00 | 80 | 15.4 |
| 20260903005310 | 63 | 278 | 2.0 | 8.0 | 0.00 | 0.00 | 0.00 | 79 | 15.7 |
| 20260903004310 | 63 | 202 | 2.0 | 11.0 | 0.00 | 0.00 | 0.00 | 80 | 15.8 |
| 20260903003310 | 63 | 269 | 3.0 | 13.0 | 0.00 | 0.00 | 0.00 | 81 | 15.9 |
| 20260903002310 | 63 | 172 | 2.0 | 3.0 | 0.00 | 0.00 | 0.00 | 80 | 16.0 |
| 20260902235311 | 63 | 217 | 0.0 | 3.0 | 0.00 | 0.00 | 0.00 | 79 | 16.1 |
| 20260902234311 | 63 | 209 | 0.0 | 3.0 | 0.00 | 0.00 | 0.00 | 79 | 16.3 |
| 20260902233309 | 63 | 240 | 1.0 | 6.0 | 0.00 | 0.00 | 0.00 | 79 | 16.4 |
| 20260902231310 | 64 | 244 | 2.0 | 4.0 | 0.00 | 0.00 | 0.00 | 78 | 16.6 |
| 20260902225310 | 65 | 241 | 2.0 | 13.0 | 0.00 | 0.00 | 0.00 | 77 | 16.8 |
| 20260902223310 | 64 | 263 | 6.0 | 15.0 | 0.00 | 0.00 | 0.00 | 76 | 16.9 |
| 20260902222309 | 64 | 230 | 4.0 | 10.0 | 0.00 | 0.00 | 0.00 | 77 | 16.9 |
| 20260902221310 | 64 | 202 | 7.0 | 20.0 | 0.00 | 0.00 | 0.00 | 78 | 17.1 |
| 20260902220310 | 64 | 233 | 1.0 | 3.0 | 0.00 | 0.00 | 0.00 | 80 | 17.0 |
| 20260902215310 | 64 | 238 | 2.0 | 8.0 | 0.00 | 0.00 | 0.00 | 81 | 17.0 |
| 20260902214310 | 64 | 176 | 1.0 | 4.0 | 0.00 | 0.00 | 0.00 | 81 | 16.8 |
| 20260902212310 | 64 | 205 | 1.0 | 3.0 | 0.00 | 0.00 | 0.00 | 81 | 16.9 |
| 20260902211310 | 64 | 220 | 0.0 | 3.0 | 0.00 | 0.00 | 0.00 | 82 | 17.0 |
| 20260902210310 | 64 | 240 | 0.0 | 3.0 | 0.00 | 0.00 | 0.00 | 81 | 17.1 |
| 20260902205311 | 64 | 225 | 1.0 | 4.0 | 0.00 | 0.00 | 0.00 | 81 | 17.2 |
| 20260902204310 | 64 | 214 | 1.0 | 3.0 | 0.00 | 0.00 | 0.00 | 81 | 17.3 |
| 20260902203311 | 64 | 200 | 0.0 | 4.0 | 0.00 | 0.00 | 0.00 | 81 | 17.3 |
| 20260902202311 | 64 | 234 | 0.0 | 2.0 | 0.00 | 0.00 | 0.00 | 80 | 17.4 |
| 20260902201310 | 64 | 234 | 0.0 | 3.0 | 0.00 | 0.00 | 0.00 | 80 | 17.6 |
| 20260902195310 | 64 | 228 | 0.0 | 2.0 | 0.00 | 0.00 | 0.00 | 79 | 17.7 |
| 20260902194311 | 65 | 228 | 0.0 | 2.0 | 0.00 | 0.00 | 0.00 | 78 | 17.7 |
| 20260902193310 | 65 | 228 | 0.0 | 1.0 | 0.00 | 0.00 | 0.00 | 77 | 17.7 |
| 20260902192311 | 65 | 227 | 0.0 | 2.0 | 0.00 | 0.00 | 0.00 | 77 | 17.9 |
| 20260902191310 | 65 | 225 | 0.0 | 2.0 | 0.00 | 0.00 | 0.00 | 76 | 17.8 |
| 20260902185310 | 66 | 243 | 0.0 | 3.0 | 0.00 | 0.00 | 0.00 | 76 | 17.8 |
| 20260902183310 | 66 | 251 | 1.0 | 3.0 | 0.00 | 0.00 | 0.00 | 75 | 17.9 |
| 20260902182310 | 66 | 247 | 0.0 | 3.0 | 0.00 | 0.00 | 0.00 | 75 | 18.0 |
| 20260902181310 | 67 | 251 | 0.0 | 4.0 | 0.00 | 0.00 | 0.00 | 74 | 17.9 |
| 20260902175310 | 67 | 262 | 1.0 | 6.0 | 0.00 | 0.00 | 0.00 | 72 | 18.0 |
| 20260902174310 | 67 | 269 | 2.0 | 7.0 | 0.00 | 0.00 | 0.00 | 72 | 18.0 |